• In Kazakhstan
  • List of Countries
  • For 7 days
  • Water Temperature
  • Satellite Maps
  • Weather Map
  • News
  • Weather Widgets
  • user-avatar
    Login

    Hourly Weather Malatya

    Today, 21 November, Tuesday

    Time Temperature Precipitation Wind Pressure Humidity
    00:00 +9°C° 0.3 mm 2 mps 667 mmHg 77%
    01:00 +8°C° 0.1 mm 2 mps 666 mmHg 78%
    02:00 +8°C° 0.1 mm 3 mps 666 mmHg 79%
    03:00 +8°C° 0.1 mm 3 mps 665 mmHg 81%
    04:00 +8°C° 0.2 mm 3 mps 665 mmHg 81%
    05:00 +8°C° 0.2 mm 3 mps 664 mmHg 82%
    06:00 +7°C° 0.2 mm 4 mps 664 mmHg 83%
    07:00 +7°C° 0.6 mm 4 mps 663 mmHg 82%
    08:00 +7°C° 0.6 mm 5 mps 663 mmHg 81%
    09:00 +8°C° 0.6 mm 6 mps 662 mmHg 80%
    10:00 +8°C° 2.6 mm 7 mps 662 mmHg 81%
    11:00 +8°C° 2.6 mm 7 mps 662 mmHg 81%
    12:00 +7°C° 2.6 mm 8 mps 662 mmHg 81%
    13:00 +8°C° 1.6 mm 7 mps 663 mmHg 76%
    14:00 +8°C° 1.6 mm 6 mps 663 mmHg 72%
    15:00 +8°C° 1.6 mm 5 mps 663 mmHg 67%
    16:00 +7°C° 0.6 mm 5 mps 663 mmHg 68%
    17:00 +6°C° 0.6 mm 5 mps 664 mmHg 69%
    18:00 +5°C° 0.6 mm 5 mps 664 mmHg 70%
    19:00 +5°C° 0.4 mm 5 mps 664 mmHg 71%
    20:00 +3°C° 0.4 mm 5 mps 665 mmHg 71%
    21:00 +3°C° 0.4 mm 5 mps 665 mmHg 72%
    22:00 +2°C° 0.1 mm 5 mps 665 mmHg 71%
    23:00 +2°C° 0.1 mm 5 mps 666 mmHg 71%

    Tomorrow, 22 November, Wednesday

    Time Temperature Precipitation Wind Pressure Humidity
    00:00 +2°C° 0.1 mm 5 mps 666 mmHg 70%
    01:00 +1°C° 0 mm 5 mps 666 mmHg 70%
    02:00 +1°C° 0 mm 5 mps 666 mmHg 70%
    03:00 +1°C° 0 mm 5 mps 667 mmHg 70%
    04:00 0°C° 0 mm 5 mps 667 mmHg 70%
    05:00 0°C° 0 mm 5 mps 667 mmHg 70%
    06:00 0°C° 0 mm 5 mps 667 mmHg 69%
    07:00 0°C° 0 mm 5 mps 668 mmHg 66%
    08:00 0°C° 0 mm 5 mps 668 mmHg 62%
    09:00 0°C° 0 mm 5 mps 668 mmHg 59%
    10:00 0°C° 0 mm 5 mps 669 mmHg 54%
    11:00 +1°C° 0 mm 6 mps 669 mmHg 50%
    12:00 +1°C° 0 mm 6 mps 669 mmHg 46%
    13:00 +2°C° 0 mm 6 mps 669 mmHg 45%
    14:00 +2°C° 0 mm 6 mps 669 mmHg 45%
    15:00 +2°C° 0 mm 6 mps 669 mmHg 44%
    16:00 +1°C° 0 mm 5 mps 669 mmHg 48%
    17:00 0°C° 0 mm 4 mps 670 mmHg 52%
    18:00 0°C° 0 mm 3 mps 670 mmHg 56%
    19:00 0°C° 0 mm 3 mps 670 mmHg 58%
    20:00 0°C° 0 mm 3 mps 671 mmHg 60%
    21:00 0°C° 0 mm 3 mps 671 mmHg 61%
    22:00 -1°C° 0 mm 3 mps 671 mmHg 62%
    23:00 -1°C° 0 mm 3 mps 671 mmHg 62%

    Day after tomorrow, 23 November, Thursday

    Time Temperature Precipitation Wind Pressure Humidity
    00:00 -1°C° 0 mm 2 mps 671 mmHg 62%
    01:00 -1°C° 0 mm 2 mps 671 mmHg 61%
    02:00 -1°C° 0 mm 2 mps 671 mmHg 60%
    03:00 -1°C° 0 mm 2 mps 671 mmHg 58%
    04:00 -1°C° 0 mm 2 mps 671 mmHg 57%
    05:00 -1°C° 0 mm 2 mps 671 mmHg 56%
    06:00 -1°C° 0 mm 2 mps 671 mmHg 55%
    07:00 +1°C° 0 mm 2 mps 671 mmHg 54%
    08:00 +2°C° 0 mm 2 mps 671 mmHg 53%
    09:00 +3°C° 0 mm 2 mps 671 mmHg 52%
    10:00 +4°C° 0 mm 2 mps 671 mmHg 51%
    11:00 +5°C° 0 mm 2 mps 671 mmHg 51%
    12:00 +5°C° 0 mm 3 mps 671 mmHg 50%
    13:00 +5°C° 0.1 mm 3 mps 671 mmHg 51%
    14:00 +5°C° 0.1 mm 3 mps 670 mmHg 51%
    15:00 +7°C° 0.1 mm 3 mps 670 mmHg 52%
    16:00 +5°C° 0.1 mm 3 mps 670 mmHg 56%
    17:00 +6°C° 0.1 mm 2 mps 670 mmHg 59%
    18:00 +5°C° 0.1 mm 2 mps 670 mmHg 63%
    19:00 +5°C° 0.1 mm 2 mps 670 mmHg 64%
    20:00 +5°C° 0.1 mm 2 mps 670 mmHg 66%
    21:00 +5°C° 0.1 mm 2 mps 670 mmHg 67%
    22:00 +5°C° 0.2 mm 2 mps 670 mmHg 69%
    23:00 +3°C° 0.2 mm 3 mps 670 mmHg 71%

    24 November, Friday

    Time Temperature Precipitation Wind Pressure Humidity
    00:00 +3°C° 0.2 mm 3 mps 670 mmHg 73%
    01:00 +3°C° 0.1 mm 3 mps 671 mmHg 74%
    02:00 +2°C° 0.1 mm 3 mps 671 mmHg 75%
    03:00 +2°C° 0.1 mm 3 mps 671 mmHg 76%
    04:00 +1°C° 0 mm 3 mps 671 mmHg 75%
    05:00 0°C° 0 mm 3 mps 671 mmHg 74%
    06:00 0°C° 0 mm 3 mps 671 mmHg 73%
    07:00 0°C° 0 mm 3 mps 672 mmHg 71%
    08:00 0°C° 0 mm 3 mps 673 mmHg 68%
    09:00 0°C° 0 mm 3 mps 673 mmHg 65%
    10:00 +1°C° 0 mm 3 mps 673 mmHg 60%
    11:00 +2°C° 0 mm 3 mps 673 mmHg 54%
    12:00 +3°C° 0 mm 3 mps 673 mmHg 49%
    13:00 +3°C° 0 mm 3 mps 673 mmHg 48%
    14:00 +4°C° 0 mm 3 mps 673 mmHg 47%
    15:00 +4°C° 0 mm 3 mps 673 mmHg 46%
    16:00 +3°C° 0 mm 3 mps 673 mmHg 50%
    17:00 +3°C° 0 mm 3 mps 673 mmHg 55%
    18:00 +3°C° 0 mm 2 mps 673 mmHg 59%
    19:00 +3°C° 0 mm 2 mps 674 mmHg 62%
    20:00 +3°C° 0 mm 2 mps 674 mmHg 64%
    21:00 +2°C° 0 mm 2 mps 675 mmHg 67%
    22:00 +2°C° 0 mm 2 mps 675 mmHg 68%
    23:00 +2°C° 0 mm 2 mps 675 mmHg 68%

    25 November, Saturday

    Time Temperature Precipitation Wind Pressure Humidity
    00:00 +2°C° 0 mm 2 mps 675 mmHg 69%
    01:00 +2°C° 0 mm 2 mps 675 mmHg 70%
    02:00 +2°C° 0 mm 2 mps 676 mmHg 71%
    03:00 +1°C° 0 mm 2 mps 676 mmHg 71%
    04:00 +1°C° 0 mm 2 mps 676 mmHg 73%
    05:00 +1°C° 0 mm 2 mps 676 mmHg 74%
    06:00 +2°C° 0 mm 1 mps 676 mmHg 75%
    07:00 +2°C° 0 mm 1 mps 676 mmHg 71%
    08:00 +3°C° 0 mm 1 mps 677 mmHg 68%
    09:00 +3°C° 0 mm 1 mps 677 mmHg 65%
    10:00 +4°C° 0 mm 1 mps 677 mmHg 59%
    11:00 +5°C° 0 mm 1 mps 677 mmHg 52%
    12:00 +5°C° 0 mm 1 mps 677 mmHg 45%
    13:00 +6°C° 0 mm 1 mps 677 mmHg 43%
    14:00 +6°C° 0 mm 1 mps 677 mmHg 40%
    15:00 +6°C° 0 mm 1 mps 676 mmHg 38%
    16:00 +5°C° 0 mm 1 mps 676 mmHg 42%
    17:00 +4°C° 0 mm 1 mps 677 mmHg 46%
    18:00 +3°C° 0 mm 1 mps 677 mmHg 50%
    19:00 +3°C° 0 mm 1 mps 677 mmHg 49%
    20:00 +3°C° 0 mm 1 mps 677 mmHg 49%
    21:00 +3°C° 0 mm 1 mps 677 mmHg 49%
    22:00 +2°C° 0 mm 1 mps 677 mmHg 48%
    23:00 +2°C° 0 mm 1 mps 677 mmHg 48%

    26 November, Sunday

    Time Temperature Precipitation Wind Pressure Humidity
    00:00 +2°C° 0 mm 1 mps 678 mmHg 47%
    01:00 +2°C° 0 mm 1 mps 678 mmHg 46%
    02:00 +2°C° 0 mm 1 mps 677 mmHg 46%
    03:00 +2°C° 0 mm 1 mps 677 mmHg 45%
    04:00 +1°C° 0 mm 1 mps 677 mmHg 45%
    05:00 +1°C° 0 mm 1 mps 677 mmHg 45%
    06:00 +1°C° 0 mm 1 mps 677 mmHg 44%
    07:00 +2°C° 0 mm 1 mps 677 mmHg 41%
    08:00 +3°C° 0 mm 1 mps 678 mmHg 38%
    09:00 +3°C° 0 mm 1 mps 678 mmHg 36%
    10:00 +4°C° 0 mm 1 mps 678 mmHg 33%
    11:00 +5°C° 0 mm 1 mps 678 mmHg 31%
    12:00 +6°C° 0 mm 1 mps 677 mmHg 29%
    13:00 +7°C° 0 mm 1 mps 677 mmHg 29%
    14:00 +6°C° 0 mm 0 mps 677 mmHg 29%
    15:00 +7°C° 0 mm 0 mps 676 mmHg 29%
    16:00 +6°C° 0 mm 1 mps 676 mmHg 33%
    17:00 +5°C° 0 mm 1 mps 676 mmHg 38%
    18:00 +4°C° 0 mm 1 mps 676 mmHg 42%
    19:00 +3°C° 0 mm 1 mps 676 mmHg 41%
    20:00 +3°C° 0 mm 1 mps 676 mmHg 40%
    21:00 +3°C° 0 mm 1 mps 676 mmHg 39%
    22:00 +3°C° 0 mm 1 mps 676 mmHg 39%
    23:00 +3°C° 0 mm 1 mps 676 mmHg 38%
    Show more